DW1996 Weather Reports


Display with metric or nautical units.
time (UTC)temp
F
wind
direction
speed
MPH
gust
MPH
rain 1hr
in
rain 24hr
in
rain mn
in
humidity
%
barometer
mb
20260904173027 93 146 10.0 17.0 0.00 0.00 0.00 63 1011.3
20260904171524 94 178 6.0 15.0 0.00 0.00 0.00 63 1011.4
20260904170021 93 196 6.0 17.0 0.00 0.00 0.00 64 1011.4
20260904164521 93 143 7.0 15.0 0.00 0.00 0.00 63 1011.5
20260904163019 94 178 6.0 18.0 0.00 0.00 0.00 63 1011.7
20260904161512 93 161 9.0 14.0 0.00 0.00 0.00 63 1011.6
20260904160010 93 173 7.0 15.0 0.00 0.00 0.00 63 1011.5
20260904154506 93 171 8.0 14.0 0.00 0.00 0.00 64 1011.6
20260904153003 92 175 7.0 15.0 0.00 0.00 0.00 66 1011.6
20260904151557 91 191 7.0 15.0 0.00 0.00 0.00 68 1011.4
20260904150055 90 195 6.0 14.0 0.00 0.00 0.00 69 1011.5
20260904144554 89 113 6.0 14.0 0.00 0.00 0.00 70 1011.5
20260904143052 90 192 6.0 12.0 0.00 0.00 0.00 71 1011.3
20260904141554 88 162 8.0 13.0 0.00 0.00 0.00 73 1011.4
20260904140043 87 190 4.0 8.0 0.00 0.00 0.00 77 1011.3
20260904134600 85 161 4.0 9.0 0.00 0.00 0.00 79 1011.2
20260904133040 84 186 2.0 7.0 0.00 0.00 0.00 81 1011.1
20260904131540 83 182 0.0 8.0 0.00 0.00 0.00 82 1011.2
20260904130042 83 153 0.0 6.0 0.00 0.00 0.00 82 1011.0
20260904124538 83 142 1.0 9.0 0.00 0.00 0.00 83 1010.8
20260904123035 82 149 2.0 7.0 0.00 0.00 0.00 83 1010.7
20260904121542 82 194 3.0 8.0 0.00 0.00 0.00 83 1010.5
20260904120037 82 119 2.0 6.0 0.00 0.00 0.00 83 1010.4
20260904114534 82 163 2.0 5.0 0.00 0.00 0.00 84 1010.3
20260904113034 82 163 1.0 5.0 0.00 0.00 0.00 84 1010.4
20260904111537 82 181 0.0 3.0 0.00 0.00 0.00 84 1010.3
20260904110030 82 171 1.0 5.0 0.00 0.00 0.00 84 1010.3
20260904104529 82 155 2.0 6.0 0.00 0.00 0.00 84 1010.1
20260904103029 83 184 2.0 7.0 0.00 0.00 0.00 84 1010.0
20260904101508 83 188 1.0 6.0 0.00 0.00 0.00 84 1010.2
20260904100008 83 185 1.0 5.0 0.00 0.00 0.00 84 1010.2
20260904094511 83 163 1.0 5.0 0.00 0.00 0.00 84 1010.2
20260904093006 83 197 0.0 5.0 0.00 0.00 0.00 83 1010.2
20260904091504 83 205 2.0 7.0 0.00 0.00 0.00 83 1010.2
20260904090017 83 204 2.0 7.0 0.00 0.00 0.00 83 1010.2
20260904084504 83 188 3.0 7.0 0.00 0.00 0.00 83 1010.2
20260904083003 83 193 2.0 7.0 0.00 0.00 0.00 83 1010.1
20260904081505 83 190 3.0 10.0 0.00 0.00 0.00 83 1010.1
20260904080001 83 186 4.0 8.0 0.00 0.00 0.00 83 1010.2
20260904074601 84 195 3.0 10.0 0.00 0.00 0.00 83 1010.4
20260904073100 84 193 4.0 9.0 0.00 0.00 0.00 82 1010.5
20260904071617 84 202 3.0 8.0 0.00 0.00 0.00 82 1010.7
20260904070113 84 211 4.0 10.0 0.00 0.00 0.00 82 1010.7
20260904064552 84 194 4.0 9.0 0.00 0.00 0.00 81 1010.9
20260904063101 84 188 5.0 10.0 0.00 0.00 0.00 81 1011.0
20260904061549 84 165 5.0 10.0 0.00 0.00 0.00 81 1010.9
20260904060049 84 178 5.0 14.0 0.00 0.00 0.00 81 1011.0
20260904054550 85 181 5.0 10.0 0.00 0.00 0.00 81 1011.0
20260904053057 85 173 5.0 11.0 0.00 0.00 0.00 81 1011.2
20260904051545 85 151 7.0 12.0 0.00 0.00 0.00 81 1011.1
20260904050043 85 185 6.0 11.0 0.00 0.00 0.00 81 1011.0
20260904044541 85 157 7.0 12.0 0.00 0.00 0.00 81 1010.9
20260904043046 85 136 7.0 12.0 0.00 0.00 0.00 81 1010.9
20260904041539 85 155 6.0 12.0 0.00 0.00 0.00 81 1011.0
20260904040054 85 170 5.0 9.0 0.00 0.00 0.00 81 1011.0
20260904034538 85 157 6.0 15.0 0.00 0.00 0.00 80 1010.9
20260904033042 85 146 5.0 14.0 0.00 0.00 0.00 80 1010.8
20260904031549 86 111 7.0 16.0 0.00 0.00 0.00 80 1010.6
20260904030037 86 148 5.0 11.0 0.00 0.00 0.00 80 1010.6
20260904024536 86 182 5.0 12.0 0.00 0.00 0.00 80 1010.5
20260904023036 86 142 6.0 12.0 0.00 0.00 0.00 80 1010.4
20260904021534 86 121 7.0 14.0 0.00 0.00 0.00 80 1010.3
20260904020033 86 119 6.0 14.0 0.00 0.00 0.00 80 1010.1
20260904014533 86 180 6.0 17.0 0.00 0.00 0.00 79 1009.9
20260904013043 86 177 10.0 19.0 0.00 0.00 0.00 79 1009.6
20260904011536 87 147 9.0 18.0 0.00 0.00 0.00 78 1009.7
20260904010031 87 138 10.0 16.0 0.00 0.00 0.00 78 1009.9
20260904004534 87 157 7.0 15.0 0.00 0.00 0.00 77 1009.7
20260904003033 88 153 6.0 15.0 0.00 0.00 0.00 77 1009.6
20260904001531 88 175 9.0 18.0 0.00 0.00 0.00 76 1009.6
20260904000031 89 140 11.0 17.0 0.00 0.00 0.00 74 1009.6
20260903234528 89 130 10.0 16.0 0.00 0.00 0.00 73 1009.5
20260903233027 90 174 7.0 17.0 0.00 0.00 0.00 72 1009.3
20260903231529 90 139 10.0 17.0 0.00 0.00 0.00 70 1009.2
20260903230036 90 119 8.0 19.0 0.00 0.00 0.00 72 1009.0
20260903224532 91 147 12.0 21.0 0.00 0.00 0.00 71 1008.8
20260903223028 91 148 6.0 17.0 0.00 0.00 0.00 72 1008.8
20260903221525 91 161 10.0 17.0 0.00 0.00 0.00 69 1008.8
20260903220026 92 154 8.0 18.0 0.00 0.00 0.00 70 1008.8
20260903214529 92 163 10.0 19.0 0.00 0.00 0.00 66 1009.0
20260903213031 92 159 9.0 21.0 0.00 0.00 0.00 65 1008.9
20260903211529 93 161 8.0 18.0 0.00 0.00 0.00 65 1009.1
20260903210021 93 150 6.0 17.0 0.00 0.00 0.00 67 1009.0
20260903204519 93 98 8.0 20.0 0.00 0.00 0.00 65 1009.1
20260903203019 93 205 9.0 20.0 0.00 0.00 0.00 67 1009.2
20260903201529 93 158 10.0 19.0 0.00 0.00 0.00 66 1009.4
20260903200015 94 136 8.0 20.0 0.00 0.00 0.00 66 1009.4
20260903194514 93 165 8.0 20.0 0.00 0.00 0.00 66 1009.5
20260903193012 94 148 9.0 18.0 0.00 0.00 0.00 65 1009.6
20260903191511 93 145 8.0 19.0 0.00 0.00 0.00 67 1009.8
20260903190010 94 119 7.0 17.0 0.00 0.00 0.00 66 1009.8
20260903184508 95 175 10.0 19.0 0.00 0.00 0.00 65 1010.0
20260903183006 96 147 9.0 21.0 0.00 0.00 0.00 63 1010.1
20260903181503 97 158 7.0 18.0 0.00 0.00 0.00 60 1010.3
20260903180000 98 181 6.0 14.0 0.00 0.00 0.00 56 1010.4
20260903174600 98 202 6.0 17.0 0.00 0.00 0.00 55 1010.6